Starlink 3859

operational
NORAD ID: 52470 Int'l Des: 2022-049 Owner: SPXS Country: US Constellation: starlink
LEOCIRCULAR

Starlink 3859について

説明を読み込み中...

リアルタイム位置

3D地球を読み込み中...

次回通過

高度履歴

Altitude vs Time

uPlot chart will show altitude changes over time

軌道要素

1 52470U 22049V 25258.37169341 .00000266 00000-0 34789-4 0 9990
2 52470 53.2165 126.1561 0001394 85.7286 274.3866 15.08842004185784
Epoch: Sep 15, 2025 • Age: 21 hours

現在のステータス

高度 545.3 km
速度 7.60 km/s
衛星直下点 53.06°N, 135.25°E
打ち上げ日 May 6, 2022
運用期間 3.3 years
タイプ internet

技術仕様

分類 Payload
質量 297.00 kg
乾燥質量 220.00 kg
総質量 297.00 kg
長さ 0.20 m
直径 2.80 m
スパン 9.00 m
形状 Box + pan
製造者 SPXS
バスタイプ Starlink
フェーズステータス In Orbit
所有者/国 SPXS/US

大規模コンステレーション

Loading constellations...